QPF
0.00 0.01 0.03 0.04 0.03 0.03 0.02 0.02 0.02 0.02 0.01 0.01 0.02 0.03 0.03 0.02 0.02 0.02 0.03 0.03 0.03 0.05 0.06 0.06 0.06 0.07 0.07 0.06 0.06 0.05 0.03 0.03 0.03 0.02 0.02 0.03 0.03 0.03 0.02 0.02 0.01 0.01 0.04
0.00 0.00 0.03 0.04 0.02 0.02 0.02 0.02 0.01 0.01 0.01 0.01 0.02 0.02 0.03 0.03 0.03 0.03 0.03 0.03 0.04 0.04 0.04 0.05 0.05 0.06 0.07 0.07 0.05 0.04 0.02 0.02 0.02 0.02 0.02 0.02 0.02 0.03 0.03 0.02 0.02 0.02 0.02
0.00 0.00 0.02 0.03 0.02 0.02 0.02 0.02 0.01 0.01 0.01 0.01 0.01 0.03 0.03 0.02 0.02 0.03 0.02 0.02 0.03 0.03 0.03 0.04 0.04 0.04 0.05 0.04 0.04 0.04 0.03 0.02 0.02 0.02 0.01 0.01 0.02 0.05 0.05 0.04 0.04 0.04 0.03
0.00 0.00 0.01 0.02 0.03 0.02 0.02 0.01 0.01 0.03 0.03 0.02 0.02 0.02 0.02 0.02 0.02 0.02 0.02 0.02 0.02 0.02 0.02 0.03 0.04 0.04 0.04 0.04 0.04 0.03 0.03 0.02 0.01 0.01 0.01 0.01 0.03 0.06 0.06 0.05 0.05 0.05 0.03
0.00 0.00 0.01 0.03 0.04 0.05 0.03 0.02 0.02 0.03 0.03 0.03 0.02 0.02 0.02 0.02 0.03 0.03 0.03 0.02 0.02 0.02 0.02 0.02 0.03 0.03 0.03 0.03 0.03 0.03 0.03 0.02 0.01 0.01 0.01 0.02 0.04 0.06 0.05 0.04 0.05 0.05 0.03
0.01 0.01 0.02 0.04 0.03 0.04 0.04 0.03 0.03 0.04 0.03 0.03 0.02 0.02 0.03 0.03 0.02 0.02 0.02 0.02 0.02 0.03 0.02 0.02 0.03 0.03 0.02 0.02 0.02 0.02 0.02 0.02 0.01 0.01 0.01 0.02 0.03 0.05 0.05 0.04 0.03 0.04 0.03
0.01 0.02 0.03 0.04 0.03 0.03 0.04 0.05 0.04 0.04 0.04 0.05 0.05 0.03 0.03 0.02 0.01 0.01 0.02 0.02 0.02 0.03 0.02 0.03 0.03 0.03 0.03 0.01 0.01 0.01 0.01 0.01 0.01 0.01 0.01 0.02 0.03 0.05 0.05 0.05 0.04 0.04 0.04
0.02 0.03 0.03 0.05 0.04 0.03 0.04 0.05 0.05 0.06 0.05 0.05 0.06 0.04 0.02 0.01 0.01 0.01 0.02 0.02 0.02 0.02 0.03 0.03 0.03 0.03 0.02 0.01 0.01 0.00 0.00 0.00 0.01 0.01 0.00 0.02 0.04 0.05 0.06 0.04 0.04 0.04 0.04
0.03 0.03 0.03 0.04 0.04 0.03 0.04 0.05 0.04 0.06 0.05 0.02 0.02 0.03 0.03 0.02 0.01 0.01 0.01 0.02 0.02 0.03 0.05 0.04 0.03 0.02 0.02 0.01 0.01 0.00 0.00 0.00 0.01 0.01 0.01 0.02 0.04 0.05 0.05 0.04 0.03 0.04 0.04
0.03 0.03 0.03 0.02 0.02 0.02 0.03 0.04 0.02 0.02 0.02 0.01 0.01 0.01 0.01 0.01 0.02 0.02 0.01 0.02 0.02 0.04 0.09 0.09 0.05 0.03 0.02 0.01 0.01 0.00 0.01 0.01 0.01 0.01 0.01 0.03 0.04 0.04 0.04 0.03 0.03 0.04 0.03
0.04 0.04 0.03 0.02 0.02 0.02 0.02 0.02 0.02 0.02 0.01 0.01 0.01 0.01 0.00 0.01 0.01 0.02 0.02 0.03 0.02 0.03 0.09 0.13 0.09 0.05 0.04 0.03 0.01 0.01 0.01 0.01 0.01 0.02 0.02 0.03 0.03 0.04 0.04 0.03 0.03 0.03 0.03
0.04 0.03 0.03 0.03 0.03 0.03 0.02 0.02 0.01 0.01 0.00 0.01 0.01 0.01 0.01 0.00 0.00 0.01 0.01 0.01 0.01 0.02 0.06 0.14 0.16 0.09 0.04 0.02 0.01 0.01 0.01 0.01 0.02 0.02 0.02 0.02 0.03 0.03 0.03 0.03 0.03 0.03 0.03
0.04 0.03 0.03 0.03 0.03 0.03 0.02 0.02 0.01 0.01 0.00 0.01 0.01 0.01 0.00 0.00 0.00 0.00 0.00 0.01 0.01 0.02 0.05 0.11 0.16 0.14 0.05 0.02 0.01 0.01 0.01 0.02 0.02 0.02 0.01 0.02 0.02 0.03 0.03 0.02 0.03 0.03 0.02
0.08 0.04 0.03 0.03 0.04 0.04 0.04 0.03 0.02 0.01 0.01 0.01 0.01 0.01 0.01 0.00 0.00 0.00 0.01 0.00 0.00 0.02 0.03 0.07 0.13 0.14 0.10 0.04 0.02 0.02 0.02 0.02 0.02 0.02 0.01 0.01 0.01 0.03 0.03 0.03 0.03 0.03 0.03
0.11 0.07 0.04 0.04 0.03 0.04 0.04 0.05 0.05 0.03 0.01 0.01 0.01 0.02 0.02 0.01 0.00 0.00 0.00 0.00 0.00 0.01 0.03 0.04 0.09 0.12 0.11 0.08 0.04 0.03 0.03 0.02 0.02 0.01 0.01 0.01 0.01 0.02 0.03 0.03 0.03 0.04 0.04
0.13 0.10 0.07 0.05 0.04 0.04 0.04 0.04 0.04 0.04 0.03 0.02 0.02 0.02 0.02 0.02 0.01 0.01 0.00 0.00 0.00 0.00 0.02 0.03 0.05 0.09 0.10 0.08 0.06 0.04 0.04 0.03 0.02 0.01 0.01 0.01 0.02 0.02 0.03 0.03 0.04 0.05 0.05
0.11 0.11 0.09 0.07 0.06 0.05 0.04 0.04 0.04 0.04 0.04 0.04 0.03 0.03 0.02 0.02 0.02 0.02 0.01 0.00 0.00 0.00 0.01 0.03 0.03 0.04 0.06 0.06 0.05 0.04 0.04 0.04 0.03 0.02 0.01 0.01 0.02 0.03 0.03 0.04 0.05 0.06 0.06
0.09 0.09 0.08 0.09 0.08 0.07 0.06 0.06 0.05 0.04 0.05 0.05 0.05 0.05 0.03 0.03 0.02 0.02 0.02 0.01 0.00 0.00 0.00 0.01 0.03 0.03 0.03 0.04 0.04 0.04 0.03 0.03 0.03 0.03 0.02 0.02 0.03 0.03 0.03 0.04 0.04 0.04 0.04
0.08 0.09 0.06 0.07 0.08 0.09 0.08 0.07 0.07 0.06 0.06 0.06 0.05 0.05 0.05 0.04 0.03 0.04 0.03 0.02 0.01 0.01 0.01 0.01 0.01 0.02 0.02 0.02 0.03 0.03 0.03 0.03 0.03 0.03 0.02 0.03 0.03 0.03 0.03 0.03 0.03 0.02 0.02
0.07 0.09 0.07 0.06 0.06 0.07 0.09 0.10 0.09 0.08 0.07 0.06 0.05 0.05 0.05 0.05 0.04 0.04 0.04 0.03 0.01 0.01 0.01 0.01 0.01 0.02 0.02 0.02 0.03 0.03 0.04 0.03 0.03 0.03 0.02 0.03 0.03 0.02 0.02 0.02 0.01 0.01 0.01
0.06 0.07 0.07 0.06 0.06 0.07 0.07 0.09 0.10 0.09 0.09 0.07 0.06 0.06 0.07 0.09 0.09 0.07 0.06 0.05 0.04 0.03 0.02 0.01 0.02 0.02 0.03 0.02 0.02 0.03 0.03 0.03 0.04 0.03 0.02 0.02 0.02 0.02 0.02 0.01 0.01 0.01 0.02
0.05 0.05 0.04 0.04 0.04 0.06 0.08 0.08 0.08 0.08 0.09 0.08 0.05 0.05 0.06 0.09 0.12 0.13 0.12 0.10 0.08 0.06 0.04 0.03 0.02 0.03 0.02 0.02 0.02 0.02 0.02 0.02 0.03 0.03 0.02 0.02 0.02 0.02 0.03 0.02 0.01 0.01 0.01
0.04 0.04 0.03 0.03 0.02 0.03 0.07 0.09 0.08 0.07 0.08 0.09 0.07 0.04 0.04 0.05 0.09 0.12 0.13 0.12 0.10 0.08 0.07 0.05 0.03 0.02 0.03 0.02 0.03 0.03 0.03 0.02 0.02 0.02 0.02 0.02 0.02 0.02 0.03 0.03 0.02 0.01 0.01
0.02 0.02 0.02 0.03 0.03 0.03 0.04 0.07 0.10 0.09 0.07 0.07 0.07 0.07 0.04 0.03 0.05 0.08 0.10 0.12 0.11 0.10 0.09 0.07 0.05 0.03 0.03 0.03 0.02 0.02 0.02 0.02 0.02 0.02 0.02 0.03 0.03 0.03 0.02 0.03 0.04 0.03 0.02
0.01 0.02 0.02 0.02 0.03 0.03 0.03 0.04 0.06 0.10 0.10 0.07 0.06 0.07 0.08 0.05 0.03 0.03 0.04 0.06 0.08 0.07 0.07 0.07 0.08 0.06 0.05 0.03 0.02 0.02 0.01 0.01 0.01 0.01 0.02 0.03 0.02 0.02 0.03 0.04 0.03 0.05 0.05
0.01 0.01 0.01 0.02 0.02 0.02 0.03 0.03 0.03 0.05 0.08 0.09 0.08 0.07 0.07 0.07 0.07 0.05 0.03 0.04 0.04 0.05 0.04 0.04 0.05 0.06 0.04 0.03 0.02 0.02 0.02 0.02 0.02 0.01 0.01 0.02 0.02 0.03 0.04 0.04 0.04 0.05 0.07
MSLP
1012.99 1012.86 1012.92 1013.17 1013.55 1014.00 1014.44 1014.79 1015.00 1015.08 1015.05 1014.96 1014.87 1014.85 1014.92 1015.08 1015.30 1015.55 1015.78 1015.98 1016.13 1016.24 1016.36 1016.50 1016.69 1016.94 1017.25 1017.58 1017.90 1018.19 1018.43 1018.61 1018.75 1018.84 1018.93 1019.02 1019.11 1019.20 1019.30 1019.39 1019.47 1019.54 1019.61
1012.85 1012.77 1012.87 1013.14 1013.55 1014.03 1014.49 1014.87 1015.11 1015.22 1015.22 1015.16 1015.11 1015.12 1015.21 1015.39 1015.63 1015.89 1016.13 1016.33 1016.49 1016.61 1016.72 1016.86 1017.05 1017.29 1017.58 1017.89 1018.20 1018.48 1018.72 1018.91 1019.07 1019.20 1019.32 1019.45 1019.58 1019.71 1019.83 1019.93 1020.01 1020.08 1020.15
1012.71 1012.69 1012.83 1013.15 1013.58 1014.08 1014.57 1014.99 1015.27 1015.42 1015.45 1015.43 1015.40 1015.42 1015.52 1015.69 1015.92 1016.17 1016.40 1016.60 1016.75 1016.87 1017.00 1017.15 1017.34 1017.59 1017.88 1018.19 1018.50 1018.78 1019.02 1019.23 1019.41 1019.57 1019.74 1019.90 1020.07 1020.23 1020.37 1020.48 1020.57 1020.64 1020.71
1012.66 1012.70 1012.89 1013.23 1013.69 1014.22 1014.73 1015.17 1015.49 1015.67 1015.74 1015.74 1015.72 1015.74 1015.82 1015.96 1016.15 1016.37 1016.57 1016.75 1016.90 1017.04 1017.19 1017.37 1017.60 1017.88 1018.19 1018.52 1018.84 1019.13 1019.38 1019.60 1019.80 1019.99 1020.19 1020.38 1020.57 1020.75 1020.91 1021.03 1021.12 1021.20 1021.27
1012.73 1012.84 1013.07 1013.44 1013.92 1014.45 1014.97 1015.43 1015.76 1015.97 1016.05 1016.07 1016.05 1016.05 1016.09 1016.19 1016.33 1016.49 1016.66 1016.82 1016.98 1017.15 1017.35 1017.58 1017.87 1018.20 1018.56 1018.92 1019.26 1019.56 1019.83 1020.06 1020.26 1020.47 1020.67 1020.88 1021.08 1021.27 1021.43 1021.56 1021.66 1021.74 1021.82
1012.94 1013.10 1013.37 1013.76 1014.24 1014.77 1015.29 1015.74 1016.07 1016.28 1016.37 1016.38 1016.36 1016.33 1016.33 1016.38 1016.47 1016.58 1016.72 1016.87 1017.05 1017.27 1017.52 1017.83 1018.20 1018.60 1019.01 1019.41 1019.78 1020.09 1020.36 1020.58 1020.78 1020.98 1021.17 1021.37 1021.57 1021.76 1021.92 1022.06 1022.16 1022.25 1022.34
1013.25 1013.45 1013.75 1014.15 1014.63 1015.14 1015.64 1016.07 1016.39 1016.59 1016.68 1016.68 1016.65 1016.60 1016.57 1016.58 1016.62 1016.71 1016.83 1016.99 1017.20 1017.46 1017.79 1018.18 1018.62 1019.09 1019.56 1019.99 1020.38 1020.70 1020.95 1021.16 1021.33 1021.50 1021.67 1021.85 1022.04 1022.22 1022.38 1022.52 1022.64 1022.75 1022.86
1013.58 1013.82 1014.14 1014.55 1015.02 1015.51 1015.99 1016.39 1016.69 1016.87 1016.96 1016.97 1016.93 1016.88 1016.85 1016.84 1016.87 1016.94 1017.06 1017.23 1017.47 1017.78 1018.17 1018.63 1019.13 1019.66 1020.17 1020.64 1021.03 1021.34 1021.57 1021.75 1021.89 1022.02 1022.16 1022.31 1022.48 1022.65 1022.82 1022.97 1023.11 1023.25 1023.38
1013.86 1014.13 1014.48 1014.90 1015.37 1015.85 1016.30 1016.67 1016.96 1017.14 1017.24 1017.26 1017.24 1017.22 1017.19 1017.20 1017.24 1017.31 1017.45 1017.64 1017.91 1018.26 1018.69 1019.19 1019.73 1020.29 1020.82 1021.29 1021.68 1021.97 1022.18 1022.32 1022.43 1022.52 1022.63 1022.75 1022.91 1023.08 1023.26 1023.43 1023.60 1023.77 1023.95
1014.04 1014.35 1014.73 1015.18 1015.66 1016.13 1016.57 1016.93 1017.22 1017.41 1017.52 1017.58 1017.61 1017.62 1017.64 1017.68 1017.75 1017.85 1018.00 1018.21 1018.50 1018.86 1019.31 1019.82 1020.38 1020.94 1021.47 1021.93 1022.30 1022.57 1022.76 1022.87 1022.95 1023.02 1023.10 1023.22 1023.36 1023.53 1023.73 1023.93 1024.14 1024.35 1024.56
1014.10 1014.46 1014.89 1015.37 1015.87 1016.36 1016.81 1017.18 1017.47 1017.69 1017.84 1017.95 1018.03 1018.11 1018.18 1018.27 1018.38 1018.51 1018.68 1018.90 1019.19 1019.56 1020.00 1020.50 1021.04 1021.58 1022.09 1022.54 1022.89 1023.15 1023.32 1023.43 1023.49 1023.55 1023.62 1023.73 1023.87 1024.05 1024.25 1024.48 1024.73 1024.98 1025.23
1014.06 1014.48 1014.97 1015.50 1016.04 1016.56 1017.03 1017.42 1017.75 1018.00 1018.20 1018.37 1018.52 1018.65 1018.79 1018.93 1019.08 1019.24 1019.43 1019.66 1019.95 1020.30 1020.72 1021.19 1021.70 1022.21 1022.70 1023.13 1023.47 1023.73 1023.91 1024.02 1024.09 1024.15 1024.22 1024.32 1024.46 1024.63 1024.85 1025.09 1025.36 1025.64 1025.92
1013.97 1014.45 1015.00 1015.59 1016.17 1016.73 1017.23 1017.67 1018.03 1018.34 1018.59 1018.82 1019.03 1019.23 1019.42 1019.61 1019.80 1019.99 1020.19 1020.43 1020.70 1021.04 1021.43 1021.88 1022.36 1022.85 1023.31 1023.73 1024.08 1024.35 1024.55 1024.68 1024.77 1024.84 1024.91 1025.01 1025.13 1025.30 1025.50 1025.74 1026.01 1026.30 1026.61
1013.86 1014.40 1015.00 1015.63 1016.27 1016.87 1017.42 1017.90 1018.31 1018.67 1018.98 1019.26 1019.53 1019.78 1020.02 1020.24 1020.46 1020.68 1020.90 1021.14 1021.42 1021.75 1022.13 1022.56 1023.02 1023.50 1023.96 1024.39 1024.75 1025.05 1025.27 1025.43 1025.55 1025.63 1025.70 1025.78 1025.88 1026.01 1026.19 1026.40 1026.65 1026.93 1027.24
1013.76 1014.33 1014.96 1015.63 1016.30 1016.95 1017.54 1018.07 1018.55 1018.96 1019.33 1019.66 1019.97 1020.27 1020.54 1020.79 1021.04 1021.28 1021.52 1021.78 1022.07 1022.41 1022.80 1023.24 1023.71 1024.19 1024.67 1025.11 1025.51 1025.83 1026.09 1026.28 1026.42 1026.51 1026.57 1026.62 1026.68 1026.76 1026.88 1027.04 1027.25 1027.51 1027.80
1013.65 1014.23 1014.87 1015.55 1016.24 1016.92 1017.57 1018.16 1018.69 1019.17 1019.60 1019.99 1020.34 1020.66 1020.96 1021.24 1021.50 1021.77 1022.03 1022.33 1022.66 1023.03 1023.46 1023.92 1024.42 1024.93 1025.44 1025.91 1026.33 1026.68 1026.97 1027.18 1027.33 1027.42 1027.46 1027.48 1027.49 1027.51 1027.56 1027.66 1027.81 1028.02 1028.29
1013.51 1014.06 1014.68 1015.35 1016.06 1016.77 1017.46 1018.12 1018.72 1019.27 1019.77 1020.21 1020.61 1020.96 1021.28 1021.58 1021.87 1022.16 1022.46 1022.80 1023.18 1023.60 1024.08 1024.60 1025.14 1025.69 1026.23 1026.73 1027.18 1027.56 1027.86 1028.09 1028.24 1028.32 1028.34 1028.32 1028.29 1028.25 1028.23 1028.27 1028.35 1028.51 1028.74
1013.32 1013.81 1014.38 1015.03 1015.73 1016.47 1017.21 1017.94 1018.63 1019.27 1019.84 1020.34 1020.79 1021.18 1021.52 1021.85 1022.15 1022.47 1022.82 1023.20 1023.63 1024.12 1024.66 1025.23 1025.83 1026.43 1027.00 1027.52 1027.99 1028.39 1028.70 1028.93 1029.08 1029.15 1029.16 1029.12 1029.05 1028.97 1028.91 1028.89 1028.92 1029.03 1029.21
1013.08 1013.48 1013.99 1014.59 1015.28 1016.05 1016.84 1017.65 1018.43 1019.16 1019.82 1020.40 1020.90 1021.33 1021.71 1022.06 1022.39 1022.74 1023.12 1023.55 1024.03 1024.58 1025.17 1025.80 1026.44 1027.08 1027.68 1028.23 1028.71 1029.11 1029.43 1029.67 1029.82 1029.90 1029.91 1029.87 1029.79 1029.69 1029.60 1029.55 1029.54 1029.60 1029.73
1012.81 1013.12 1013.54 1014.09 1014.77 1015.55 1016.40 1017.28 1018.15 1018.97 1019.73 1020.39 1020.96 1021.45 1021.87 1022.25 1022.61 1022.98 1023.39 1023.85 1024.37 1024.96 1025.59 1026.26 1026.94 1027.60 1028.22 1028.79 1029.28 1029.69 1030.02 1030.27 1030.44 1030.54 1030.57 1030.55 1030.49 1030.40 1030.32 1030.26 1030.23 1030.25 1030.34
1012.59 1012.79 1013.12 1013.61 1014.27 1015.05 1015.94 1016.88 1017.83 1018.74 1019.59 1020.33 1020.98 1021.53 1022.00 1022.41 1022.80 1023.20 1023.62 1024.10 1024.63 1025.23 1025.89 1026.57 1027.27 1027.95 1028.59 1029.17 1029.68 1030.11 1030.46 1030.73 1030.93 1031.07 1031.14 1031.16 1031.14 1031.10 1031.04 1030.98 1030.95 1030.95 1031.00
1012.50 1012.58 1012.81 1013.24 1013.85 1014.62 1015.52 1016.50 1017.50 1018.47 1019.39 1020.21 1020.93 1021.55 1022.08 1022.54 1022.96 1023.37 1023.80 1024.28 1024.81 1025.40 1026.04 1026.72 1027.42 1028.11 1028.77 1029.37 1029.91 1030.37 1030.75 1031.07 1031.31 1031.49 1031.62 1031.69 1031.73 1031.73 1031.71 1031.68 1031.65 1031.63 1031.64
1012.58 1012.55 1012.68 1013.02 1013.57 1014.29 1015.17 1016.14 1017.15 1018.16 1019.12 1020.01 1020.79 1021.48 1022.08 1022.59 1023.05 1023.49 1023.92 1024.38 1024.89 1025.45 1026.06 1026.72 1027.41 1028.10 1028.77 1029.40 1029.97 1030.48 1030.91 1031.27 1031.57 1031.81 1031.99 1032.12 1032.20 1032.25 1032.26 1032.25 1032.22 1032.19 1032.18
1012.87 1012.72 1012.75 1012.99 1013.44 1014.08 1014.88 1015.79 1016.77 1017.77 1018.75 1019.67 1020.52 1021.28 1021.95 1022.53 1023.04 1023.51 1023.95 1024.39 1024.87 1025.38 1025.95 1026.58 1027.24 1027.93 1028.62 1029.28 1029.90 1030.46 1030.95 1031.37 1031.72 1032.00 1032.23 1032.39 1032.51 1032.59 1032.62 1032.62 1032.59 1032.55 1032.51
1013.35 1013.08 1012.99 1013.11 1013.44 1013.95 1014.63 1015.43 1016.33 1017.27 1018.23 1019.17 1020.07 1020.90 1021.65 1022.31 1022.90 1023.41 1023.87 1024.30 1024.75 1025.22 1025.75 1026.33 1026.97 1027.65 1028.35 1029.05 1029.72 1030.33 1030.88 1031.35 1031.74 1032.06 1032.31 1032.49 1032.62 1032.70 1032.73 1032.73 1032.69 1032.64 1032.59
1013.94 1013.57 1013.36 1013.35 1013.52 1013.87 1014.39 1015.04 1015.80 1016.65 1017.56 1018.49 1019.43 1020.33 1021.17 1021.93 1022.60 1023.18 1023.67 1024.12 1024.54 1024.98 1025.46 1026.00 1026.61 1027.28 1027.99 1028.72 1029.43 1030.09 1030.69 1031.20 1031.62 1031.96 1032.21 1032.39 1032.51 1032.57 1032.59 1032.58 1032.53 1032.48 1032.42
Thickness
5674 5676 5677 5676 5676 5675 5675 5675 5675 5676 5676 5677 5677 5678 5679 5680 5681 5682 5683 5684 5685 5686 5687 5688 5689 5690 5691 5691 5692 5692 5692 5693 5693 5693 5694 5696 5696 5697 5698 5698 5699 5699 5700
5675 5674 5674 5673 5672 5672 5671 5671 5671 5672 5672 5672 5673 5673 5674 5675 5676 5677 5678 5679 5681 5682 5682 5683 5684 5685 5686 5686 5686 5687 5687 5687 5688 5688 5689 5690 5691 5692 5693 5693 5694 5695 5695
5671 5671 5670 5669 5669 5668 5667 5667 5667 5667 5667 5668 5668 5669 5669 5670 5671 5672 5673 5674 5675 5676 5677 5678 5678 5679 5680 5680 5681 5681 5681 5682 5682 5683 5684 5685 5686 5687 5688 5689 5689 5690 5691
5667 5666 5666 5665 5665 5664 5663 5663 5663 5662 5663 5663 5663 5663 5664 5664 5665 5666 5667 5668 5669 5670 5671 5672 5672 5673 5674 5674 5674 5675 5675 5676 5676 5677 5679 5680 5681 5682 5683 5684 5684 5685 5686
5661 5661 5661 5661 5660 5659 5658 5658 5658 5658 5658 5658 5658 5658 5658 5659 5659 5660 5660 5662 5663 5663 5664 5665 5666 5666 5667 5667 5668 5669 5669 5670 5670 5671 5673 5674 5675 5677 5678 5678 5679 5680 5680
5655 5656 5656 5656 5655 5654 5653 5653 5653 5653 5652 5652 5652 5652 5653 5653 5653 5653 5654 5655 5656 5657 5658 5659 5659 5659 5660 5661 5661 5662 5663 5663 5664 5665 5667 5668 5669 5671 5672 5673 5673 5674 5675
5649 5650 5650 5650 5649 5648 5648 5647 5647 5647 5647 5646 5646 5646 5647 5647 5647 5647 5647 5648 5649 5650 5651 5652 5652 5653 5653 5653 5654 5655 5656 5657 5658 5659 5660 5661 5663 5665 5666 5667 5667 5668 5669
5643 5643 5644 5644 5643 5642 5642 5642 5641 5641 5640 5640 5640 5640 5640 5640 5640 5640 5641 5641 5642 5643 5644 5644 5645 5645 5646 5646 5647 5648 5648 5650 5651 5652 5653 5655 5656 5658 5659 5660 5661 5662 5662
5636 5636 5636 5637 5636 5636 5636 5636 5635 5634 5634 5633 5633 5633 5632 5632 5633 5633 5633 5634 5635 5635 5636 5636 5637 5637 5637 5638 5639 5640 5640 5642 5643 5644 5646 5647 5649 5651 5652 5653 5654 5655 5656
5628 5629 5629 5629 5629 5629 5629 5628 5628 5627 5627 5626 5626 5625 5625 5625 5625 5625 5626 5626 5627 5628 5628 5629 5629 5629 5629 5630 5630 5631 5632 5634 5635 5637 5638 5640 5642 5643 5645 5646 5647 5648 5649
5621 5622 5622 5623 5623 5622 5622 5621 5621 5620 5619 5618 5618 5618 5618 5617 5617 5617 5618 5618 5619 5619 5620 5620 5621 5621 5621 5621 5622 5623 5624 5625 5627 5629 5630 5632 5634 5636 5637 5638 5640 5640 5641
5613 5614 5616 5616 5616 5615 5615 5614 5613 5613 5612 5611 5611 5611 5611 5610 5609 5609 5610 5610 5610 5611 5611 5611 5612 5612 5612 5612 5613 5614 5615 5616 5618 5620 5621 5624 5626 5628 5629 5630 5632 5633 5634
5607 5608 5609 5609 5609 5608 5607 5607 5606 5605 5605 5604 5604 5603 5603 5603 5602 5601 5601 5601 5601 5602 5601 5602 5602 5602 5603 5604 5604 5605 5606 5607 5609 5610 5613 5615 5618 5619 5621 5622 5623 5625 5626
5600 5601 5602 5603 5602 5601 5601 5600 5599 5599 5598 5597 5597 5596 5596 5595 5594 5593 5593 5592 5592 5592 5592 5592 5593 5592 5593 5594 5595 5596 5597 5597 5599 5601 5603 5606 5608 5610 5612 5614 5615 5617 5618
5593 5595 5595 5596 5596 5594 5594 5593 5592 5592 5591 5590 5589 5589 5589 5588 5586 5585 5584 5584 5583 5583 5583 5583 5583 5583 5583 5584 5585 5586 5587 5588 5589 5591 5593 5596 5598 5600 5603 5605 5606 5608 5609
5587 5587 5588 5589 5589 5588 5587 5586 5585 5585 5584 5583 5582 5582 5581 5580 5579 5578 5576 5575 5575 5575 5574 5574 5573 5573 5573 5574 5575 5576 5577 5578 5579 5581 5583 5585 5587 5589 5592 5594 5596 5598 5599
5581 5581 5581 5581 5581 5580 5580 5579 5578 5577 5577 5576 5575 5574 5573 5573 5571 5570 5568 5567 5566 5566 5565 5564 5563 5564 5563 5564 5564 5565 5566 5567 5568 5570 5572 5573 5575 5577 5580 5583 5585 5586 5588
5574 5575 5575 5574 5574 5573 5572 5572 5571 5570 5569 5568 5567 5567 5565 5564 5564 5562 5560 5559 5557 5557 5557 5556 5554 5553 5552 5553 5553 5553 5554 5556 5557 5558 5560 5562 5563 5565 5567 5570 5572 5574 5576
5568 5569 5568 5567 5567 5566 5564 5563 5563 5562 5561 5560 5559 5559 5558 5557 5556 5555 5553 5550 5549 5548 5547 5547 5545 5544 5542 5542 5542 5542 5543 5544 5545 5546 5548 5549 5551 5553 5555 5557 5559 5561 5563
5559 5560 5560 5559 5559 5557 5555 5554 5553 5552 5552 5551 5551 5551 5550 5549 5548 5547 5545 5543 5542 5540 5538 5537 5535 5534 5533 5532 5532 5531 5531 5532 5533 5534 5536 5537 5539 5541 5543 5544 5546 5548 5550
5550 5550 5551 5551 5550 5549 5547 5546 5544 5543 5542 5542 5542 5542 5542 5541 5540 5539 5537 5535 5533 5532 5530 5528 5527 5524 5522 5522 5522 5520 5519 5521 5521 5522 5524 5525 5527 5528 5530 5532 5534 5536 5537
5540 5541 5542 5542 5542 5542 5541 5539 5537 5535 5534 5533 5533 5532 5532 5532 5532 5531 5530 5528 5526 5523 5520 5519 5518 5514 5512 5512 5512 5510 5508 5509 5509 5511 5512 5513 5514 5516 5517 5519 5521 5523 5524
5532 5533 5534 5534 5534 5533 5532 5530 5528 5526 5524 5523 5523 5523 5523 5524 5523 5523 5521 5520 5518 5516 5513 5511 5510 5509 5504 5501 5502 5502 5500 5499 5496 5498 5499 5500 5501 5503 5505 5506 5508 5510 5511
5523 5524 5525 5525 5525 5524 5523 5522 5522 5521 5519 5517 5517 5515 5515 5515 5514 5514 5513 5512 5509 5508 5506 5503 5502 5501 5498 5494 5492 5491 5491 5490 5487 5485 5487 5488 5489 5490 5492 5493 5494 5496 5498
5513 5514 5515 5516 5516 5515 5515 5514 5514 5513 5512 5509 5508 5506 5506 5506 5505 5505 5504 5503 5501 5499 5496 5494 5492 5491 5490 5488 5484 5482 5480 5479 5478 5477 5475 5474 5475 5477 5478 5479 5481 5482 5484
5502 5504 5505 5507 5506 5505 5505 5505 5505 5505 5503 5501 5499 5497 5497 5496 5495 5495 5495 5494 5492 5490 5487 5485 5484 5482 5480 5478 5476 5474 5473 5471 5468 5467 5464 5462 5462 5463 5465 5466 5467 5469 5470